Погода в Ново-Ивановском

Россия / Кабардино-Балкарская Республика     43°38′22″N   43°57′24″E
темп.,
°C
ветер,
м/с
пор.,
м/с
влажн.,
%
обл.,
%
осадки,
мм/ч
давл.,
гПа
погр.,
м
18 мая, ср
ср1800:00+14зюз1184100 0.4 101711
03:00+13ю3491100 0.8 101788
06:00+13ююв248837 0.1 1016142
09:00+18юв336227 0.1 1015964
12:00+21вюв445020 0.0 10131784
15:00+22в554936 0.0 10111775
18:00+20в48649 0.0 1010398
21:00+14вюв37815 0.0 1012115
19 мая, чт
чт1900:00+12вюв11882 0.0 101111
03:00+11юз11900 0.0 101111
06:00+13з22780 0.0 101274
09:00+19ссз78665 0.0 1014883
12:00+19с6662100 0.0 10141448
15:00+14сз81173100 0.1 1016614
18:00+11сз61275100 0.2 1017672
21:00+10сз51184100 0.8 1019841
20 мая, пт
пт2000:00+9з1282100 0.2 101972
03:00+8юз3492100 0.9 1019186
06:00+10юз41186100 0.1 1020604
09:00+14зсз91462100 0.1 10201537
12:00+17сз8114799 0.0 10202212
15:00+15з156298 0.4 10201127
18:00+13сз51073100 0.5 1021945
21:00+12з41168100 0.7 1023486
21 мая, сб
сб2100:00+9юз468990 0.0 1022120
03:00+8юз33905 0.0 102144
06:00+10юз35805 0.0 1021127
09:00+17юз345136 0.0 10191253
12:00+20юз34429 0.0 10161813
15:00+21ююз234010 0.0 10141484
18:00+20ююв1155100 0.0 101312
21:00+16с71172100 0.1 1015491
22 мая, вс
вс2200:00+13ююв368299 0.1 1014165
03:00+12ю378989 0.1 1012138
06:00+12ююз35646 0.0 1011109
09:00+20юз114557 0.0 1009361
12:00+23св323926 0.0 10071116
15:00+24в33415 0.0 10061179
18:00+22всв36605 0.0 1005178
21:00+15в33709 0.0 100544